Home   Weather   Manado   Past weeks

Flag for Indonesia Past Weather in Manado, North Sulawesi, Indonesia — Yesterday and Last 2 Weeks

Now
77 °F

Passing clouds.


Feels Like: 78 °F
Forecast: 74 / 90 °F
Wind: No wind

Location: Menado / Dr. Sam Ratulangi

Current Time: Aug 19, 2017 at 9:21:51 pm

Latest Report: Aug 19, 2017 at 8:00 pm


Visibility: 6 mi

Pressure: 29.86 "Hg

Humidity: 94%

Dew Point: 75 °F

Location of ManadoLocation

Past Weather in Manado — Graph

°F

Manado Temperature Yesterday

Maximum temperature yesterday: 91 °F (at 11:00 am)
Minimum temperature yesterday: 72 °F (at 5:00 am)
Average temperature yesterday: 80 °F

High & Low Weather Summary for the Past Weeks

 TemperatureHumidityPressure
High97 °F (Aug 5, 11:30 am)100% (Aug 10, 7:00 am)29.92 "Hg (Aug 10, 7:00 am)
Low72 °F (Aug 5, 3:00 am)44% (Aug 5, 11:30 am)29.74 "Hg (Aug 5, 3:30 pm)
Average81 °F79%29.83 "Hg
* Reported Aug 4 8:00 pm — Aug 19 8:00 pm, Manado. Weather by CustomWeather, © 2017

Note: Actual official high and low records may vary slightly from our data, if they occured in-between our weather recording intervals... More about our weather records

Advertising

Manado Weather History for the Previous 24 Hours

Scroll right to see more
 ConditionsComfort  
Time TempWeatherWind HumidityBarometerVisibility
8:00 pm
Sat, Aug 19
77 °FPassing clouds.No wind94%29.86 "Hg6 mi
7:30 pm77 °FPassing clouds.1 mph89%29.86 "Hg6 mi
7:00 pm77 °FPassing clouds.1 mph89%29.86 "Hg6 mi
6:30 pm79 °FPassing clouds.2 mph84%29.86 "Hg6 mi
6:00 pm81 °FPassing clouds.2 mph79%29.83 "Hg6 mi
5:30 pm82 °FScattered clouds.2 mph70%29.83 "Hg6 mi
5:00 pm82 °FScattered clouds.1 mph70%29.80 "Hg6 mi
4:30 pm84 °FScattered clouds.3 mph62%29.80 "Hg6 mi
4:00 pm86 °FScattered clouds.5 mph62%29.80 "Hg6 mi
3:30 pm88 °FScattered clouds.3 mph62%29.80 "Hg6 mi
3:00 pm86 °FScattered clouds.2 mph66%29.80 "Hg6 mi
2:30 pm84 °FScattered clouds.2 mph70%29.80 "Hg6 mi
2:00 pm82 °FScattered clouds.1 mph84%29.80 "Hg6 mi
1:30 pm81 °FScattered clouds.2 mph89%29.83 "Hg5 mi
1:00 pm79 °FScattered clouds.2 mph94%29.83 "Hg5 mi
12:30 pm79 °FLight rain. Scattered clouds.2 mph94%29.86 "Hg4 mi
12:00 pm79 °FLight rain. Scattered clouds.3 mph94%29.86 "Hg4 mi
11:30 am81 °FScattered clouds.2 mph84%29.86 "Hg5 mi
11:00 am79 °FScattered clouds.2 mph89%29.86 "Hg5 mi
10:30 am79 °FLight rain. Scattered clouds.3 mph89%29.89 "Hg5 mi
10:00 am79 °FLight rain. Scattered clouds.7 mph89%29.89 "Hg5 mi
9:30 am84 °FScattered clouds.9 mph74%29.89 "HgN/A
9:00 am84 °FScattered clouds.6 mph74%29.89 "HgN/A
8:30 am82 °FScattered clouds.3 mph84%29.89 "HgN/A
8:00 am81 °FScattered clouds.1 mph89%29.89 "HgN/A
7:30 am79 °FPassing clouds.1 mph94%29.89 "Hg6 mi
7:00 am73 °FPassing clouds.6 mph100%29.86 "Hg6 mi
6:30 am73 °FPassing clouds.3 mph94%29.86 "Hg6 mi
6:00 am73 °FPassing clouds.2 mph94%29.86 "Hg6 mi
1:30 am75 °FPassing clouds.2 mph94%29.89 "Hg6 mi
11:30 pm
Fri, Aug 18
75 °FPassing clouds.1 mph94%29.89 "Hg6 mi
10:30 pm75 °FPassing clouds.No wind94%29.86 "Hg6 mi
10:00 pm75 °FPassing clouds.2 mph94%29.89 "Hg6 mi
9:30 pm75 °FPassing clouds.1 mph94%29.89 "Hg6 mi
9:00 pm75 °FPassing clouds.2 mph94%29.89 "Hg6 mi
Weather by CustomWeather, © 2017

See weather overviewHow to use our weather pages